sat.trackr.live / text

‹ back to catalog

STARLINK-34939

NORAD 65183 · 2025-175K

PAYLOAD ACTIVE UNKNOWN

§ Identity

Operator
Country
US
Launch date
2025-08-14
Launch site
AFWTR
Launch vehicle
Mass (kg)
RCS (m²)

Purposes: comms

External: N2YO · Heavens-Above · Gunter

§ Orbital elements

Epoch: 2026-09-20T20:49:22.056096Z

Period
93.91 min
Inclination
97.2859°
Eccentricity
0.0002144
Mean motion
15.33434480 rev/d
Perigee alt
464.1 km
Apogee alt
467.0 km
Semi-major
6,843.7 km
B*
1.1257e-4
RAAN
132.9100°
Arg perigee
109.6034°
Mean anomaly
250.5441°
Rev number
6,216

§ Raw data

STARLINK-349391 65183U 25175K   26263.86761639  .00003560  00000+0  11257-3 0  99902 65183  97.2859 132.9100 0002144 109.6034 250.5441 15.33434480 62166

JSON: /api/v1/satellites/65183 · /tle

For live sub-satellite position, see the globe view (requires WebGL).

§ Visibility from observer

Set your observer location to see the next 7 days of passes ≥ 10°. The values pass through the URL so the page stays shareable.

No JS? Fill the form by hand. The geolocation button needs JavaScript.